Window Rock, AZ

4:24 AM MDT on July 23, 2017 (GMT -0600)
Window Rock

Weather History for KRQE - April, 2013

Change the Weather History Date:

Friday, April 5, 2013

  Actual Average Record
Temperature  
Mean Temperature 49 °F -  
Max Temperature 69 °F 57 °F 75 °F (1943)
Min Temperature 30 °F 26 °F 15 °F (1966)
Degree Days  
Heating Degree Days 16    
Moisture  
Dew Point 15 °F    
Average Humidity 25    
Maximum Humidity 43    
Minimum Humidity 13    
Precipitation  
Precipitation 0.00 in - - ()
Sea Level Pressure  
Sea Level Pressure 29.88 in    
Wind  
Wind Speed 6 mph (SW)    
Max Wind Speed 24 mph    
Max Gust Speed 33 mph    
Visibility 10 miles    
Events      
Averages and records for this station are not official NWS values.
T = Trace of Precipitation, MM = Missing Value Source: NWS Daily Summary

Daily Weather History Graph

Daily Weather History Graph

Search for Another Location

Airport or City:

Trip Planner

Search our weather history database for the weather conditions in past years. The results will help you decide how hot, cold, wet, or windy it might be!

Date:

Astronomy

Apr. 05, 2013 Rise Set
Actual Time 6:56 AM MDT 7:41 PM MDT
Civil Twilight 6:30 AM MDT 8:07 PM MDT
Nautical Twilight 6:00 AM MDT 8:37 PM MDT
Astronomical Twilight 5:29 AM MDT 9:09 PM MDT
Moon 3:56 AM MDT (4/5) 3:17 PM MDT (4/5)
Length of Visible Light 13h 36m
Length of Day
12h 44m
Waning Crescent, 23% of the Moon is Illuminated
Apr 5
Waning Crescent
Apr 10
New
Apr 18
First Quarter
Apr 25
Full
May 2
Last Quarter

Hourly Weather History & Observations

Time (MDT) Temp. Windchill Dew Point Humidity Pressure Visibility Wind Dir Wind Speed Gust Speed Precip Events Conditions
12:53 AM 37.0 °F - 10.0 °F 33% 29.97 in 10.0 mi Calm Calm - N/A   Clear
1:53 AM 37.9 °F - 10.0 °F 32% 29.96 in 10.0 mi Calm Calm - N/A   Clear
2:53 AM 35.1 °F - 10.9 °F 37% 29.95 in 10.0 mi Calm Calm - N/A   Clear
3:53 AM 33.1 °F - 10.9 °F 40% 29.94 in 10.0 mi Calm Calm - N/A   Clear
4:53 AM 34.0 °F - 10.9 °F 38% 29.94 in 10.0 mi Calm Calm - N/A   Clear
5:53 AM 30.9 °F - 10.9 °F 43% 29.94 in 10.0 mi Calm Calm - N/A   Clear
7:53 AM 37.0 °F - 12.9 °F 37% 29.99 in 10.0 mi Calm Calm - N/A   Clear
8:53 AM 48.0 °F - 14.0 °F 26% 29.95 in 10.0 mi Calm Calm - N/A   Scattered Clouds
9:53 AM 57.9 °F - 17.1 °F 20% 29.91 in 10.0 mi SSW 10.4 mph - N/A   Mostly Cloudy
10:53 AM 60.1 °F - 14.0 °F 16% 29.92 in 10.0 mi WSW 18.4 mph 23.0 mph N/A   Mostly Cloudy
11:53 AM 61.0 °F - 14.0 °F 16% 29.91 in 10.0 mi SW 10.4 mph 23.0 mph N/A   Overcast
12:53 PM 64.0 °F - 15.1 °F 15% 29.88 in 10.0 mi SW 10.4 mph 25.3 mph N/A   Clear
1:53 PM 66.0 °F - 16.0 °F 15% 29.84 in 10.0 mi WSW 20.7 mph 29.9 mph N/A   Partly Cloudy
2:53 PM 66.9 °F - 17.1 °F 15% 29.81 in 10.0 mi SW 17.3 mph 26.5 mph N/A   Partly Cloudy
3:53 PM 68.0 °F - 17.1 °F 14% 29.77 in 10.0 mi WSW 12.7 mph 21.9 mph N/A   Scattered Clouds
4:53 PM 66.0 °F - 17.1 °F 15% 29.77 in 10.0 mi WSW 21.9 mph 33.4 mph N/A   Scattered Clouds
5:53 PM 66.0 °F - 12.9 °F 13% 29.79 in 10.0 mi WSW 24.2 mph 33.4 mph N/A   Clear
6:53 PM 63.0 °F - 12.0 °F 14% 29.81 in 10.0 mi WSW 18.4 mph 26.5 mph N/A   Clear
7:53 PM 57.0 °F - 17.1 °F 21% 29.81 in 10.0 mi SW 6.9 mph - N/A   Clear
8:53 PM 51.1 °F - 17.1 °F 26% 29.82 in 10.0 mi South 5.8 mph - N/A   Clear
9:53 PM 52.0 °F - 19.0 °F 27% 29.80 in 10.0 mi South 6.9 mph - N/A   Clear
10:53 PM 46.9 °F - 19.9 °F 34% 29.82 in 10.0 mi WSW 8.1 mph - N/A   Clear
11:53 PM 46.0 °F 41.9 °F 21.0 °F 37% 29.83 in 10.0 mi WSW 8.1 mph - N/A   Clear